Regional Weather Roundup
Issued by NWS

Home | Current Version | Previous Version | Graphics & Text | Print | Product List | Glossary On
Versions: 1 2 3 4 5 6 7 8 9 10 11 12 13 14 15 16 17 18 19 20 21 22 23 24 25 26 27 28 29 30 31 32 33 34 35 36 37 38 39 40 41 42 43 44 45 46 47 48 49 50
000
ASUS43 KBIS 201020
RWRND

NORTH DAKOTA REGIONAL WEATHER ROUNDUP
NATIONAL WEATHER SERVICE BISMARCK ND
400 AM CST SAT DEC 20 2014

NOTE: "FAIR" INDICATES FEW OR NO CLOUDS BELOW 12,000 FEET WITH NO
SIGNIFICANT WEATHER AND/OR OBSTRUCTIONS TO VISIBILITY.


NDZ001>003-009>011-017-201100-
NORTHWEST NORTH DAKOTA

CITY           SKY/WX    TMP DP  RH WIND       PRES   REMARKS
WILLISTON      MOCLDY    11   8  88 CALM      29.87S
MINOT          FOG       22  20  92 S5        29.91F VSB 1/4 WCI  16
MINOT AFB      FRZ DRZL  22  22 100 S5        29.91F VSB 1/4 WCI  16
$$

NDZ018>021-031>035-040>046-201100-
SOUTHWEST NORTH DAKOTA

CITY           SKY/WX    TMP DP  RH WIND       PRES   REMARKS
BISMARCK       FOG       15  13  91 E5        29.94S VSB 3/4 WCI   8
DICKINSON      CLOUDY    27  22  81 S3        29.84F
GARRISON         N/A     20  17  88 SE5       29.90S WCI  13
HETTINGER ARPT CLOUDY    25  22  88 CALM      29.89S
$$

NDZ004>008-012>016-024-026-027-054-201100-
NORTHEAST NORTH DAKOTA

CITY           SKY/WX    TMP DP  RH WIND       PRES   REMARKS
GRAND FORKS    CLOUDY    29  27  92 S6        30.00F FOG
GRND FRKS AFB  CLOUDY    29  29 100 SW5       30.00F
DEVILS LAKE    CLOUDY    23  16  74 S5        29.94F WCI  17
$$

NDZ022-023-025-028>030-036>039-047>053-201100-
SOUTHEAST NORTH DAKOTA

CITY           SKY/WX    TMP DP  RH WIND       PRES   REMARKS
FARGO          CLOUDY    31  28  89 S9        30.03S
JAMESTOWN      FOG       22  20  92 CALM      29.97S VSB 1/4
$$




USA.gov is the U.S. government's official web portal to all federal, state and local government web resources and services.